KINEIS-1A

Last updated on Thu Oct 23 2025 00:02:49 GMT+0000 (Coordinated Universal Time)

1 60084U 24114F 25295.54701413 .00001820 00000+0 24775-3 0 9996 2 60084 98.0047 315.7308 0003759 156.7331 203.4052 14.79973586 72234
UTC large
Height (km)
Speed (km/s)
/
Latitude / Longitude
Inclination (degrees)
Orbital Period (minutes)
Azimuth
Elevation
Range (km)
Doppler Factor

Next 0 passes for location: London (51.5072 / 0.1276)

Sorry there are no passes over London.